Triuchirapalli, India

7:33 PM IST on October 21, 2019 (GMT +0530)
Tiruchirappalli

Weather History for VOTR - September, 2019

Change the Weather History Date:

Wednesday, September 18, 2019

  Actual Average Record
Temperature  
Mean Temperature 82 °F -  
Max Temperature 91 °F 88 °F 100 °F (2012)
Min Temperature 74 °F 77 °F 74 °F (2013)
Cooling Degree Days 18    
Growing Degree Days 32 (Base 50)    
Moisture  
Dew Point 76 °F    
Average Humidity 79    
Maximum Humidity 99    
Minimum Humidity 49    
Precipitation  
Precipitation 0.00 in - - ()
Sea Level Pressure  
Sea Level Pressure 29.72 in    
Wind  
Wind Speed 4 mph ()    
Max Wind Speed 9 mph    
Max Gust Speed -    
Visibility 3.5 miles    
Events      
Averages and records for this station are not official NWS values.
T = Trace of Precipitation, MM = Missing Value Source: Averaged Metar Reports

Daily Weather History Graph

Daily Weather History Graph

Search for Another Location

Airport or City:

Astronomy

Sep. 18, 2019 Rise Set
Actual Time 6:04 AM IST 6:14 PM IST
Civil Twilight 5:43 AM IST 6:35 PM IST
Nautical Twilight 5:19 AM IST 6:59 PM IST
Astronomical Twilight 4:54 AM IST 7:24 PM IST
Moon 9:11 PM IST (9/18) 9:06 AM IST (9/18)
Length of Visible Light 12h 51m
Length of Day
12h 09m
Waning Gibbous, 85% of the Moon is Illuminated
Sep 18
Waning Gibbous
Sep 22
Last Quarter
Sep 28
New
Oct 5
First Quarter
Oct 14
Full

Hourly Weather History & Observations

Time (IST) Temp. Heat Index Dew Point Humidity Pressure Visibility Wind Dir Wind Speed Gust Speed Precip Events Conditions
12:00 AM 77.0 °F - 75.2 °F 94% 29.74 in 2.5 mi East 3.5 mph - N/A   Drizzle
12:30 AM 77.0 °F - 75.2 °F 94% 29.74 in 2.5 mi SSE 3.5 mph - N/A   Light Drizzle
1:00 AM 77.0 °F - 75.2 °F 94% 29.71 in 2.5 mi Calm Calm - N/A   Mostly Cloudy
1:30 AM 77.0 °F - 75.2 °F 94% 29.71 in 3.1 mi Calm Calm - N/A   Mostly Cloudy
2:00 AM 77.0 °F - 75.2 °F 94% 29.68 in 3.1 mi NW 3.5 mph - N/A   Mostly Cloudy
2:30 AM 76 °F - 75 °F 94% 29.69 in 1 mi West 3.5 mph - -   Mist
2:30 AM 77.0 °F - 75.2 °F 94% 29.68 in 3.1 mi West 3.5 mph - N/A   Mostly Cloudy
3:00 AM 77.0 °F - 75.2 °F 94% 29.68 in 3.1 mi West 3.5 mph - N/A   Mostly Cloudy
3:30 AM 77.0 °F - 75.2 °F 94% 29.68 in 3.1 mi West 3.5 mph - N/A   Mostly Cloudy
4:00 AM 77.0 °F - 75.2 °F 94% 29.68 in 3.1 mi West 3.5 mph - N/A   Mostly Cloudy
4:30 AM 77.0 °F - 75.2 °F 94% 29.68 in 3.1 mi West 5.8 mph - N/A   Mostly Cloudy
5:00 AM 77.0 °F - 75.2 °F 94% 29.71 in 3.1 mi West 5.8 mph - N/A   Mostly Cloudy
5:30 AM 76 °F - 76 °F 99% 29.71 in 1 mi WNW 5.8 mph - -   Mist
6:00 AM 77.0 °F - 75.2 °F 94% 29.71 in 3.1 mi WNW 4.6 mph - N/A   Mostly Cloudy
6:30 AM 77.0 °F - 75.2 °F 94% 29.71 in 3.1 mi NW 4.6 mph - N/A   Mostly Cloudy
7:00 AM 77.0 °F - 75.2 °F 94% 29.74 in 3.1 mi WSW 3.5 mph - N/A   Mostly Cloudy
7:30 AM 77.0 °F - 75.2 °F 94% 29.74 in 3.1 mi West 3.5 mph - N/A   Overcast
8:00 AM 77.0 °F - 75.2 °F 94% 29.77 in 3.1 mi West 4.6 mph - N/A   Overcast
8:30 AM 78 °F - 76 °F 93% 29.77 in 2 mi WNW 3.5 mph - -   Mist
8:30 AM 78.8 °F - 77.0 °F 94% 29.77 in 3.1 mi WNW 3.5 mph - N/A   Overcast
9:00 AM 78.8 °F - 77.0 °F 94% 29.77 in 3.1 mi WNW 5.8 mph - N/A   Overcast
9:30 AM 78.8 °F - 75.2 °F 89% 29.80 in 3.1 mi West 3.5 mph - N/A   Overcast
10:00 AM 80.6 °F 86.2 °F 75.2 °F 84% 29.80 in 3.1 mi SW 4.6 mph - N/A   Overcast
10:30 AM 80.6 °F 86.2 °F 75.2 °F 84% 29.77 in 3.7 mi WSW 4.6 mph - N/A   Overcast
11:00 AM 82.4 °F 89.5 °F 75.2 °F 79% 29.77 in 3.7 mi WSW 4.6 mph - N/A   Overcast
11:30 AM 86 °F - 75 °F 64% 29.77 in 2 mi West 5.8 mph - -   Haze
11:30 AM 86.0 °F 95.1 °F 75.2 °F 70% 29.77 in 5.0 mi West 5.8 mph - N/A   Mostly Cloudy
12:00 PM 87.8 °F 97.6 °F 75.2 °F 66% 29.77 in 5.0 mi West 5.8 mph - N/A   Mostly Cloudy
12:30 PM 87.8 °F 95.6 °F 73.4 °F 62% 29.74 in 5.0 mi SW 5.8 mph - N/A   Mostly Cloudy
1:00 PM 89.6 °F 98.2 °F 73.4 °F 59% 29.74 in 5.0 mi WSW 3.5 mph - N/A   Mostly Cloudy
1:30 PM 91.4 °F 100.1 °F 73.4 °F 55% 29.71 in 5.0 mi South 5.8 mph - N/A   Mostly Cloudy
2:00 PM 91.4 °F 100.1 °F 73.4 °F 55% 29.68 in 5.0 mi SW 4.6 mph - N/A   Mostly Cloudy
2:30 PM 91 °F - 74 °F 49% 29.68 in 2 mi South 4.6 mph - -   Haze
2:30 PM 91.4 °F 100.1 °F 73.4 °F 55% 29.68 in 5.0 mi South 4.6 mph - N/A   Mostly Cloudy
3:00 PM 91.4 °F 100.1 °F 73.4 °F 55% 29.68 in 5.0 mi SSE 4.6 mph - N/A   Scattered Clouds
3:30 PM 91.4 °F 100.1 °F 73.4 °F 55% 29.68 in 5.0 mi SSE 3.5 mph - N/A   Scattered Clouds
4:00 PM 91.4 °F 100.1 °F 73.4 °F 55% 29.68 in 5.0 mi SSE 2.3 mph - N/A   Scattered Clouds
4:30 PM 91.4 °F 100.1 °F 73.4 °F 55% 29.68 in 5.0 mi SE 5.8 mph - N/A   Scattered Clouds
5:00 PM 91.4 °F 100.1 °F 73.4 °F 55% 29.68 in 5.0 mi SSE 6.9 mph - N/A   Scattered Clouds
5:30 PM 90 °F - 76 °F 54% 29.67 in 2 mi SSE 6.9 mph - -   Haze
5:30 PM 89.6 °F 99.8 °F 75.2 °F 62% 29.68 in 5.0 mi SSE 6.9 mph - N/A   Scattered Clouds
6:00 PM 87.8 °F 97.6 °F 75.2 °F 66% 29.68 in 4.3 mi SSE 9.2 mph - N/A   Scattered Clouds
6:30 PM 86.0 °F 96.9 °F 77.0 °F 74% 29.68 in 3.7 mi SE 9.2 mph - N/A   Scattered Clouds
7:00 PM 86.0 °F 96.9 °F 77.0 °F 74% 29.68 in 3.7 mi SE 9.2 mph - N/A   Scattered Clouds
7:30 PM 84.2 °F 94.1 °F 77.0 °F 79% 29.71 in 3.7 mi SSE 6.9 mph - N/A   Scattered Clouds
8:00 PM 84.2 °F 94.1 °F 77.0 °F 79% 29.71 in 3.7 mi SE 6.9 mph - N/A   Partly Cloudy
8:30 PM 85 °F - 78 °F 73% 29.73 in 2 mi SSE 9.2 mph - -   Partly Cloudy
8:30 PM 84.2 °F 94.1 °F 77.0 °F 79% 29.74 in 3.7 mi SSE 9.2 mph - N/A   Partly Cloudy
9:00 PM 84.2 °F 96.1 °F 78.8 °F 84% 29.74 in 3.7 mi South 6.9 mph - N/A   Partly Cloudy
9:30 PM 84.2 °F 96.1 °F 78.8 °F 84% 29.74 in 3.7 mi South 4.6 mph - N/A   Partly Cloudy
10:00 PM 84.2 °F 96.1 °F 78.8 °F 84% 29.74 in 3.7 mi South 3.5 mph - N/A   Partly Cloudy
10:30 PM 82.4 °F 92.4 °F 78.8 °F 89% 29.77 in 3.7 mi SSW 3.5 mph - N/A   Partly Cloudy
11:00 PM 82.4 °F 92.4 °F 78.8 °F 89% 29.77 in 3.7 mi SSW 3.5 mph - N/A   Scattered Clouds
11:30 PM 82 °F - 77 °F 82% 29.75 in 2 mi WSW 4.6 mph - -   Haze
11:30 PM 82.4 °F 90.9 °F 77.0 °F 84% 29.74 in 3.7 mi WSW 4.6 mph - N/A   Scattered Clouds